Home   Weather   Alwar   Past weeks

Flag for India Past Weather in Alwar, Rajasthan, India — Yesterday and Last 2 Weeks

Now
70 °F

Haze.


Feels Like: 70 °F
Forecast: 47 / 78 °F
Wind: 2 mph from North

Location: Jaipur / Sanganer

Current Time: Dec 3, 2016 at 10:18:54 am

Latest Report: Dec 3, 2016 at 10:00 am


Visibility: 1 mi

Pressure: 30.21 "Hg

Humidity: 43%

Dew Point: 46 °F

Location of AlwarLocation

Past Weather in Alwar — Graph

°F

Alwar Temperature Yesterday

Maximum temperature yesterday: 81 °F (at 2:00 pm)
Minimum temperature yesterday: 61 °F (at 3:00 am)
Average temperature yesterday: 70 °F

High & Low Weather Summary for the Past Weeks

 TemperatureHumidityPressure
High88 °F (Nov 29, 2:30 pm)82% (Dec 3, 7:30 am)30.18 "Hg (Dec 3, 7:30 am)
Low54 °F (Dec 3, 6:00 am)12% (Nov 19, 4:00 pm)29.89 "Hg (Nov 19, 3:00 pm)
Average72 °F37%30.01 "Hg
* Reported Nov 18 9:00 am — Dec 3 8:30 am, Alwar, Weather by CustomWeather, © 2016

Note: Actual official high and low records may vary slightly from our data, if they occured in-between our weather recording intervals... More about our weather records

Advertising

Alwar Weather History for the Previous 24 Hours

Scroll right to see more
 ConditionsComfort  
Time TempWeatherWind HumidityBarometerVisibility
8:30 am
Sat, Dec 3
61 °FFog.1 mph68%30.18 "Hg1 mi
8:00 am55 °FFog.No wind77%30.15 "Hg1 mi
7:30 am54 °FFog.No wind82%30.15 "Hg1 mi
7:00 am57 °FClear.No wind72%30.12 "Hg1 mi
6:30 am54 °FClear.No wind77%30.12 "Hg1 mi
6:00 am54 °FClear.No wind77%30.12 "Hg1 mi
5:30 am55 °FClear.No wind77%30.09 "Hg1 mi
5:00 am55 °FClear.No wind77%30.09 "Hg1 mi
4:00 am59 °FClear.1 mph72%30.09 "Hg1 mi
3:00 am57 °FClear.No wind72%30.09 "Hg1 mi
2:30 am59 °FClear.No wind72%30.09 "Hg1 mi
2:00 am59 °FClear.No wind72%30.09 "Hg1 mi
12:00 am64 °FClear.3 mph60%30.09 "Hg1 mi
11:30 pm
Fri, Dec 2
66 °FClear.5 mph56%30.09 "Hg1 mi
11:00 pm66 °FClear.5 mph60%30.09 "Hg1 mi
10:30 pm66 °FClear.2 mph56%30.09 "Hg1 mi
10:00 pm64 °FClear.No wind56%30.09 "Hg1 mi
9:00 pm66 °FClear.1 mph52%30.09 "Hg1 mi
8:30 pm68 °FClear.No wind49%30.09 "Hg1 mi
8:00 pm68 °FClear.5 mph49%30.09 "Hg1 mi
7:00 pm70 °FClear.No wind50%30.07 "Hg1 mi
6:30 pm72 °FClear.3 mph47%30.07 "Hg1 mi
6:00 pm70 °FClear.2 mph50%30.07 "Hg1 mi
5:30 pm75 °FClear.1 mph41%30.04 "Hg1 mi
5:00 pm77 °FHaze.1 mph39%30.04 "Hg1 mi
4:30 pm79 °FHaze.5 mph37%30.04 "Hg1 mi
4:00 pm81 °FHaze.1 mph28%30.04 "Hg1 mi
3:30 pm81 °FHaze.5 mph26%30.04 "Hg1 mi
3:00 pm81 °FHaze.2 mph26%30.04 "Hg1 mi
2:30 pm81 °FHaze.3 mph28%30.07 "Hg1 mi
2:00 pm81 °FHaze.2 mph30%30.07 "Hg1 mi
1:30 pm79 °FHaze.2 mph32%30.09 "Hg1 mi
1:00 pm79 °FHaze.5 mph34%30.09 "Hg1 mi
12:00 pm79 °FHaze.6 mph39%30.12 "Hg1 mi
10:30 am73 °FHaze.6 mph53%30.15 "Hg1 mi
10:00 am70 °FHaze.6 mph60%30.15 "Hg1 mi
Weather by CustomWeather, © 2016

See weather overviewHow to use our weather pages